EW9807 Weather Reports


time (UTC)temp
C
wind
direction
speed
KPH
gust
KPH
rain 1hr
cm
rain 24hr
cm
rain mn
cm
humidity
%
barometer
mb
20260509141553 16 181 3.2 12.9 0.00 0.00 0.00 94 1013.5
20260509141101 16 182 4.8 12.9 0.00 0.00 0.00 94 1013.6
20260509140550 16 190 4.8 9.7 0.00 0.00 0.00 94 1013.5
20260509140056 16 190 4.8 11.3 0.00 0.00 0.00 94 1013.5
20260509140006 16 166 1.6 11.3 0.00 0.00 0.00 94 1012.8
20260509135047 16 173 4.8 12.9 0.00 0.00 0.00 95 1013.5
20260509134556 16 167 3.2 16.1 0.00 0.00 0.00 95 1013.5
20260509133558 16 214 4.8 14.5 0.00 0.00 0.00 94 1013.4
20260509133105 16 178 6.4 9.7 0.00 0.00 0.00 95 1013.1
20260509132553 16 169 1.6 9.7 0.00 0.00 0.00 95 1012.9
20260509132059 16 176 3.2 9.7 0.00 0.00 0.00 95 1012.7
20260509131101 16 176 3.2 8.0 0.00 0.00 0.00 95 1012.7
20260509130056 16 227 4.8 12.9 0.00 0.00 0.00 95 1013.1
20260509125600 16 231 4.8 12.9 0.00 0.00 0.00 95 1013.0
20260509124601 16 221 3.2 11.3 0.00 0.00 0.00 95 1012.9
20260509124048 16 245 3.2 11.3 0.00 0.00 0.00 95 1013.0
20260509123558 15 188 1.6 11.3 0.00 0.00 0.00 95 1012.9
20260509123050 15 169 4.8 9.7 0.00 0.00 0.00 95 1012.8
20260509122045 15 192 3.2 11.3 0.00 0.00 0.00 95 1012.8
20260509121557 15 181 3.2 12.9 0.00 0.00 0.00 95 1012.8
20260509121048 15 193 3.2 12.9 0.00 0.00 0.00 95 1012.7
20260509120555 15 187 3.2 8.0 0.00 0.00 0.00 95 1012.6
20260509120104 15 200 3.2 8.0 0.00 0.00 0.00 95 1012.5
20260509115553 15 198 4.8 8.0 0.00 0.00 0.00 95 1012.7
20260509115057 15 199 1.6 8.0 0.00 0.00 0.00 95 1012.6
20260509114102 15 190 3.2 6.4 0.00 0.00 0.00 94 1012.8
20260509113551 15 169 0.0 4.8 0.00 0.00 0.00 94 1012.8
20260509113100 15 158 0.0 4.8 0.00 0.00 0.00 94 1012.5
20260509112101 15 158 0.0 0.0 0.00 0.00 0.00 94 1012.0
20260509111551 15 158 0.0 0.0 0.00 0.00 0.00 94 1011.9
20260509111059 15 158 0.0 0.0 0.00 0.00 0.00 94 1012.0
20260509110547 15 158 0.0 0.0 0.00 0.00 0.00 94 1011.9
20260509110127 15 158 0.0 0.0 0.00 0.00 0.00 94 1012.0
20260509105604 15 158 0.0 0.0 0.00 0.00 0.00 94 1012.0
20260509105048 15 158 0.0 1.6 0.00 0.00 0.00 94 1011.8
20260509104601 15 158 0.0 1.6 0.00 0.00 0.00 94 1011.8
20260509103556 14 158 0.0 1.6 0.00 0.00 0.00 94 1012.2
20260509103105 14 158 0.0 1.6 0.00 0.00 0.00 94 1012.2
20260509102551 14 158 0.0 0.0 0.00 0.00 0.00 94 1012.4
20260509101553 14 158 0.0 1.6 0.00 0.00 0.00 94 1012.5
20260509101105 14 158 0.0 1.6 0.00 0.00 0.00 94 1012.4
20260509100555 14 158 0.0 1.6 0.00 0.00 0.00 94 1012.5
20260509095547 14 158 0.0 3.2 0.00 0.00 0.00 94 1012.8
20260509094547 14 158 0.0 0.0 0.00 0.00 0.00 93 1012.9
20260509094054 14 158 0.0 1.6 0.00 0.00 0.00 93 1012.9
20260509093545 14 158 0.0 3.2 0.00 0.00 0.00 93 1012.8
20260509093057 15 158 1.6 3.2 0.00 0.00 0.00 93 1012.7
20260509092602 15 158 0.0 3.2 0.00 0.00 0.00 93 1012.6
20260509092050 15 158 0.0 0.0 0.00 0.00 0.00 93 1012.6
20260509091600 15 158 0.0 0.0 0.00 0.00 0.00 93 1012.6
20260509091048 15 158 0.0 0.0 0.00 0.00 0.00 93 1012.5
20260509090556 15 158 0.0 0.0 0.00 0.00 0.00 93 1012.5
20260509090104 15 158 0.0 0.0 0.00 0.00 0.00 93 1012.4
20260509090003 15 158 0.0 0.0 0.00 0.00 0.00 93 1011.8
20260509085607 15 158 0.0 0.0 0.00 0.00 0.00 93 1012.4
20260509085052 15 158 0.0 0.0 0.00 0.00 0.00 93 1012.6
20260509084559 15 158 0.0 0.0 0.00 0.00 0.00 93 1012.4
20260509084048 15 158 0.0 0.0 0.00 0.00 0.00 93 1012.3
20260509083557 15 158 0.0 0.0 0.00 0.00 0.00 93 1012.2
20260509083104 15 158 0.0 0.0 0.00 0.00 0.00 93 1012.2
20260509082549 15 158 0.0 0.0 0.00 0.00 0.00 93 1012.3
20260509082056 14 158 0.0 0.0 0.00 0.00 0.00 92 1012.3
20260509081605 14 158 0.0 0.0 0.00 0.00 0.00 92 1012.3
20260509081054 15 158 0.0 1.6 0.00 0.00 0.00 92 1012.3
20260509080602 15 158 0.0 1.6 0.00 0.00 0.00 92 1012.3
20260509080050 15 158 0.0 0.0 0.00 0.00 0.00 92 1012.1
20260509075554 15 158 0.0 1.6 0.00 0.00 0.00 92 1012.0
20260509075101 15 158 0.0 1.6 0.00 0.00 0.00 92 1011.7
20260509074554 15 158 0.0 1.6 0.00 0.00 0.00 92 1011.8
20260509074101 15 158 0.0 3.2 0.00 0.00 0.00 91 1011.8
20260509073552 15 158 0.0 4.8 0.00 0.00 0.00 91 1011.8
20260509073102 15 148 1.6 3.2 0.00 0.00 0.00 91 1011.8
20260509071549 15 73 0.0 3.2 0.00 0.00 0.00 91 1011.7
20260509071058 15 73 0.0 4.8 0.00 0.00 0.00 91 1011.7
20260509070549 15 173 0.0 4.8 0.00 0.00 0.00 91 1011.8
20260509070057 15 173 0.0 3.2 0.00 0.00 0.00 91 1012.0
20260509065601 15 183 0.0 0.0 0.00 0.00 0.00 91 1012.1
20260509065049 15 183 0.0 0.0 0.00 0.00 0.00 91 1012.1
20260509064555 15 183 0.0 0.0 0.00 0.00 0.00 91 1012.3
20260509063602 15 183 0.0 0.0 0.00 0.00 0.00 92 1012.6
20260509063054 15 183 0.0 0.0 0.00 0.00 0.00 92 1012.6
20260509062559 15 183 0.0 0.0 0.00 0.00 0.00 92 1012.8
20260509062048 15 183 0.0 0.0 0.00 0.00 0.00 91 1012.9
20260509061558 15 183 0.0 0.0 0.00 0.00 0.00 91 1013.0
20260509061049 15 183 0.0 0.0 0.00 0.00 0.00 91 1013.0
20260509060556 15 183 0.0 0.0 0.00 0.00 0.00 91 1013.1
20260509055550 15 183 0.0 0.0 0.00 0.00 0.00 91 1013.1
20260509055101 15 183 0.0 0.0 0.00 0.00 0.00 91 1013.2
20260509054551 15 183 0.0 0.0 0.00 0.00 0.00 91 1013.2
20260509054059 15 183 0.0 0.0 0.00 0.00 0.00 91 1013.1
20260509053551 15 183 0.0 0.0 0.00 0.00 0.00 90 1013.2
20260509052548 15 183 0.0 0.0 0.00 0.00 0.00 90 1013.3
20260509052055 15 183 0.0 0.0 0.00 0.00 0.00 90 1013.3
20260509051605 16 183 0.0 0.0 0.00 0.00 0.00 90 1013.2
20260509051055 16 183 0.0 0.0 0.00 0.00 0.00 89 1013.4
20260509050605 16 189 0.0 0.0 0.00 0.00 0.00 89 1013.3
20260509050053 16 189 0.0 0.0 0.00 0.00 0.00 89 1013.5
20260509045105 16 189 0.0 0.0 0.00 0.00 0.00 89 1013.5
20260509044045 16 189 0.0 0.0 0.00 0.00 0.00 89 1013.4
20260509043556 16 189 0.0 0.0 0.00 0.00 0.00 89 1013.4
20260509043107 16 189 0.0 0.0 0.00 0.00 0.00 89 1013.7
20260509042551 16 189 0.0 0.0 0.00 0.00 0.00 89 1013.8
20260509041548 16 193 0.0 0.0 0.00 0.00 0.00 89 1013.5
20260509040549 16 193 0.0 0.0 0.00 0.00 0.00 89 1013.8
20260509040503 15 193 0.0 0.0 0.00 0.00 0.00 89 1013.1
20260509040128 16 193 0.0 0.0 0.00 0.00 0.00 89 1013.9
20260509035605 16 193 0.0 0.0 0.00 0.00 0.00 89 1014.0
20260509035054 16 193 0.0 0.0 0.00 0.00 0.00 88 1014.0
20260509034051 16 193 0.0 0.0 0.00 0.00 0.00 88 1014.1
20260509033053 16 193 0.0 0.0 0.00 0.00 0.00 88 1014.1
20260509032600 16 193 0.0 0.0 0.00 0.00 0.00 87 1014.0
20260509032046 16 193 0.0 0.0 0.00 0.00 0.00 87 1014.1
20260509031556 16 193 0.0 0.0 0.00 0.00 0.00 87 1014.1
20260509031101 16 193 0.0 0.0 0.00 0.00 0.00 86 1014.1
20260509030549 16 193 0.0 0.0 0.00 0.00 0.00 86 1014.0
20260509030501 16 193 0.0 0.0 0.00 0.00 0.00 86 1013.3
20260509030129 16 193 0.0 0.0 0.00 0.00 0.00 85 1014.1
20260509030028 16 193 0.0 0.0 0.00 0.00 0.00 85 1013.4
20260509025546 16 193 0.0 0.0 0.00 0.00 0.00 85 1014.2
20260509025058 16 193 0.0 0.0 0.00 0.00 0.00 85 1014.1
20260509024545 16 193 0.0 0.0 0.00 0.00 0.00 85 1014.1
20260509024058 16 193 0.0 0.0 0.00 0.00 0.00 85 1014.1
20260509023544 16 193 0.0 0.0 0.00 0.00 0.00 84 1014.2
20260509023050 17 193 0.0 0.0 0.00 0.00 0.00 83 1014.2
20260509022048 17 193 0.0 1.6 0.00 0.00 0.00 82 1014.2
20260509021600 17 193 0.0 1.6 0.00 0.00 0.00 82 1014.3
20260509020602 17 193 0.0 1.6 0.00 0.00 0.00 82 1014.5
20260509020110 17 193 0.0 1.6 0.00 0.00 0.00 81 1014.5
20260509020021 16 193 0.0 1.6 0.00 0.00 0.00 81 1013.7
20260509015549 17 193 0.0 1.6 0.00 0.00 0.00 81 1014.4
20260509014550 17 193 1.6 3.2 0.00 0.00 0.00 81 1014.3
20260509013058 17 193 0.0 1.6 0.00 0.00 0.00 80 1014.4
20260509012602 17 193 0.0 1.6 0.00 0.00 0.00 80 1014.2
20260509012049 17 193 0.0 3.2 0.00 0.00 0.00 80 1014.3
20260509011602 17 193 1.6 3.2 0.00 0.00 0.00 80 1014.2
20260509011054 17 193 0.0 0.0 0.00 0.00 0.00 80 1014.4
20260509010602 17 193 0.0 0.0 0.00 0.00 0.00 80 1014.3
20260509005600 17 193 0.0 0.0 0.00 0.00 0.00 79 1014.5
20260509005107 17 193 0.0 0.0 0.00 0.00 0.00 79 1014.6
20260509005021 17 193 0.0 0.0 0.00 0.00 0.00 79 1014.0
20260509004549 17 193 0.0 0.0 0.00 0.00 0.00 79 1014.7
20260509003549 17 193 0.0 3.2 0.00 0.00 0.00 78 1014.6
20260509003058 17 193 1.6 3.2 0.00 0.00 0.00 78 1014.6
20260509002053 17 193 1.6 4.8 0.00 0.00 0.00 77 1014.5
20260509001603 17 193 1.6 6.4 0.00 0.00 0.00 76 1014.6
20260509001519 17 193 0.0 6.4 0.00 0.00 0.00 76 1014.0
20260509001046 18 193 3.2 9.7 0.00 0.00 0.00 76 1014.4
20260509000556 18 177 1.6 8.0 0.00 0.00 0.00 76 1014.5
20260509000107 18 192 3.2 8.0 0.00 0.00 0.00 75 1014.4
20260508235551 18 157 1.6 8.0 0.00 0.00 0.00 75 1014.4
20260508235102 18 182 3.2 6.4 0.00 0.00 0.00 74 1014.5
20260508234552 18 169 1.6 4.8 0.00 0.00 0.00 74 1014.6
20260508234059 18 150 1.6 6.4 0.00 0.00 0.00 74 1014.7
20260508233550 18 186 1.6 8.0 0.00 0.00 0.00 74 1014.3
20260508233052 18 178 1.6 6.4 0.00 0.00 0.00 73 1014.4
20260508232556 18 175 3.2 6.4 0.00 0.00 0.00 73 1014.6
20260508232044 18 169 1.6 9.7 0.00 0.00 0.00 73 1014.6
20260508231554 18 173 3.2 9.7 0.00 0.00 0.00 73 1014.5
20260508225552 19 177 1.6 6.4 0.00 0.00 0.00 71 1014.0
20260508224547 19 131 1.6 6.4 0.00 0.00 0.00 71 1013.7
20260508223548 19 169 3.2 9.7 0.00 0.00 0.00 70 1013.8
20260508223059 20 104 1.6 8.0 0.00 0.00 0.00 70 1013.8
20260508222600 19 223 4.8 8.0 0.00 0.00 0.00 69 1013.8
20260508221559 20 158 0.0 4.8 0.00 0.00 0.00 68 1014.1
20260508221105 20 158 1.6 4.8 0.00 0.00 0.00 68 1014.2
20260508220552 20 184 3.2 8.0 0.00 0.00 0.00 68 1014.1
20260508215548 20 173 1.6 6.4 0.00 0.00 0.00 67 1014.3
20260508215056 20 169 1.6 6.4 0.00 0.00 0.00 65 1014.0
20260508214601 20 193 1.6 6.4 0.00 0.00 0.00 66 1013.9
20260508214049 20 108 1.6 9.7 0.00 0.00 0.00 66 1014.0
20260508213557 20 278 4.8 9.7 0.00 0.00 0.00 65 1014.3
20260508212551 20 148 3.2 11.3 0.00 0.00 0.00 64 1013.9
20260508212102 20 157 3.2 8.0 0.00 0.00 0.00 66 1014.2
20260508211551 20 159 3.2 9.7 0.00 0.00 0.00 66 1014.3
20260508210608 20 186 3.2 9.7 0.00 0.00 0.00 65 1014.3
20260508210125 20 148 1.6 8.0 0.00 0.00 0.00 64 1014.5
20260508210018 20 148 3.2 8.0 0.00 0.00 0.00 64 1013.9
20260508205545 20 186 4.8 8.0 0.00 0.00 0.00 63 1014.3
20260508205056 20 84 3.2 8.0 0.00 0.00 0.00 62 1014.2
20260508204602 20 194 4.8 8.0 0.00 0.00 0.00 63 1014.3
20260508203557 20 90 1.6 9.7 0.00 0.00 0.00 63 1014.2
20260508203107 20 113 3.2 9.7 0.00 0.00 0.00 63 1014.3
20260508202552 20 92 3.2 6.4 0.00 0.00 0.00 62 1014.3
20260508202100 20 103 1.6 11.3 0.00 0.00 0.00 62 1014.2
20260508201101 21 84 4.8 8.0 0.00 0.00 0.00 62 1014.2
20260508200553 21 193 1.6 4.8 0.00 0.00 0.00 63 1014.3
20260508195602 21 155 3.2 8.0 0.00 0.00 0.00 61 1014.3
20260508195049 21 112 3.2 11.3 0.00 0.00 0.00 60 1014.4
20260508194559 21 192 4.8 11.3 0.00 0.00 0.00 58 1014.3
20260508194047 21 200 3.2 9.7 0.00 0.00 0.00 58 1014.3
20260508192551 21 200 0.0 6.4 0.00 0.00 0.00 57 1014.8
20260508192101 21 202 3.2 6.4 0.00 0.00 0.00 56 1014.8
20260508191552 21 88 3.2 6.4 0.00 0.00 0.00 56 1014.9
20260508191102 21 176 1.6 6.4 0.00 0.00 0.00 55 1014.9
20260508190554 20 53 0.0 3.2 0.00 0.00 0.00 57 1015.0
20260508190106 21 53 1.6 4.8 0.00 0.00 0.00 56 1014.9
20260508185549 21 134 1.6 3.2 0.00 0.00 0.00 57 1015.0
20260508184603 21 101 3.2 8.0 0.00 0.00 0.00 53 1015.1
20260508184051 21 87 3.2 6.4 0.00 0.00 0.00 54 1015.2
20260508183559 21 158 3.2 8.0 0.00 0.00 0.00 55 1015.4
20260508183049 21 108 3.2 12.9 0.00 0.00 0.00 57 1015.6
20260508182555 21 195 8.0 12.9 0.00 0.00 0.00 56 1015.6
20260508182044 21 91 3.2 8.0 0.00 0.00 0.00 57 1015.5
20260508181554 21 105 1.6 6.4 0.00 0.00 0.00 59 1015.5
20260508181059 21 96 3.2 8.0 0.00 0.00 0.00 55 1015.7
20260508180549 21 169 3.2 8.0 0.00 0.00 0.00 56 1015.8
20260508180101 20 165 3.2 6.4 0.00 0.00 0.00 55 1015.9
20260508175605 21 109 3.2 6.4 0.00 0.03 0.00 55 1015.9
20260508175050 21 86 1.6 6.4 0.00 0.03 0.00 55 1015.9
20260508174558 21 110 1.6 6.4 0.00 0.03 0.00 52 1016.0
20260508174049 21 153 1.6 9.7 0.00 0.03 0.00 55 1015.9
20260508173602 21 204 6.4 12.9 0.00 0.03 0.00 52 1016.0
20260508173053 20 120 6.4 12.9 0.00 0.03 0.00 55 1016.2
20260508172554 20 112 3.2 6.4 0.00 0.03 0.00 55 1016.2
20260508171045 20 117 3.2 8.0 0.00 0.03 0.00 60 1016.6
20260508170554 20 93 3.2 8.0 0.00 0.03 0.00 61 1016.7
20260508170505 20 162 1.6 8.0 0.00 0.03 0.00 59 1016.1
20260508170132 20 153 3.2 6.4 0.00 0.03 0.00 60 1016.7
20260508170020 20 122 1.6 6.4 0.00 0.03 0.00 61 1016.2
20260508165546 20 147 1.6 6.4 0.00 0.03 0.00 61 1016.8
20260508165058 19 139 1.6 6.4 0.00 0.03 0.00 63 1016.6
20260508164606 19 151 1.6 8.0 0.00 0.03 0.00 62 1016.9
20260508164054 19 219 3.2 8.0 0.00 0.03 0.00 60 1017.0
20260508163602 18 115 0.0 4.8 0.00 0.03 0.00 66 1016.9
20260508163051 18 115 0.0 4.8 0.00 0.03 0.00 62 1017.1
20260508162600 19 155 1.6 3.2 0.00 0.03 0.00 63 1017.4
20260508162106 19 158 0.0 8.0 0.00 0.03 0.00 62 1017.4
20260508161551 19 195 3.2 8.0 0.00 0.03 0.00 61 1017.8
20260508161058 19 169 3.2 8.0 0.00 0.03 0.00 60 1017.4
20260508160547 19 186 3.2 8.0 0.00 0.03 0.00 63 1017.4
20260508155547 19 110 3.2 4.8 0.00 0.03 0.00 61 1017.5
20260508155052 19 103 1.6 6.4 0.00 0.03 0.00 61 1017.6
20260508155007 18 103 0.0 6.4 0.00 0.03 0.00 61 1017.0
20260508153602 19 94 3.2 9.7 0.00 0.03 0.00 61 1017.9
20260508153053 19 152 4.8 9.7 0.00 0.03 0.00 65 1018.0
20260508152556 19 338 3.2 6.4 0.00 0.03 0.00 62 1017.9
20260508152047 18 66 1.6 6.4 0.00 0.03 0.00 67 1018.0
20260508151601 18 169 3.2 8.0 0.00 0.03 0.00 68 1017.9
20260508150603 18 168 3.2 9.7 0.00 0.03 0.00 68 1017.9
20260508150054 18 107 3.2 9.7 0.00 0.03 0.00 69 1017.9
20260508145602 17 158 3.2 9.7 0.00 0.08 0.00 68 1018.0
20260508145052 17 164 3.2 9.7 0.00 0.08 0.00 70 1017.9
20260508144544 17 114 3.2 6.4 0.00 0.08 0.00 71 1017.9
20260508144051 17 104 1.6 3.2 0.00 0.08 0.00 74 1018.0
20260508143603 17 104 1.6 3.2 0.00 0.08 0.00 74 1018.1
20260508142545 16 100 1.6 4.8 0.00 0.08 0.00 75 1018.1
20260508142055 16 103 1.6 4.8 0.00 0.08 0.00 74 1018.2